TimePST,TemperatureF,Dew PointF,Humidity,Sea Level PressureIn,VisibilityMPH,Wind Direction,Wind SpeedMPH,Gust SpeedMPH,PrecipitationIn,Events,Conditions,WindDirDegrees,DateUTC
12:53 AM,39.9,37.0,89,30.24,10.0,Calm,Calm,-,N/A,,Overcast,0,2012-12-08 08:53:00
1:06 AM,39.2,37.4,93,30.23,10.0,Calm,Calm,-,N/A,,Overcast,0,2012-12-08 09:06:00
1:23 AM,39.2,37.4,93,30.23,10.0,Calm,Calm,-,N/A,,Overcast,0,2012-12-08 09:23:00
1:53 AM,41.0,37.9,89,30.24,10.0,Calm,Calm,-,N/A,,Overcast,0,2012-12-08 09:53:00
2:53 AM,39.9,37.9,93,30.24,10.0,Calm,Calm,-,N/A,,Overcast,0,2012-12-08 10:53:00
3:53 AM,37.9,37.0,97,30.24,10.0,Calm,Calm,-,N/A,,Overcast,0,2012-12-08 11:53:00
4:53 AM,37.0,36.0,96,30.23,8.0,Calm,Calm,-,N/A,,Overcast,0,2012-12-08 12:53:00
5:53 AM,37.0,36.0,96,30.24,10.0,Calm,Calm,-,N/A,,Overcast,0,2012-12-08 13:53:00
6:53 AM,36.0,35.1,97,30.25,-9999.0,Calm,Calm,-,N/A,,Overcast,0,2012-12-08 14:53:00
7:53 AM,37.0,36.0,96,30.27,8.0,Calm,Calm,-,N/A,,Overcast,0,2012-12-08 15:53:00
8:53 AM,37.9,37.0,97,30.27,10.0,Calm,Calm,-,N/A,,Overcast,0,2012-12-08 16:53:00
9:53 AM,41.0,39.0,93,30.29,10.0,Calm,Calm,-,N/A,,Overcast,0,2012-12-08 17:53:00
10:53 AM,42.1,39.0,89,30.30,10.0,Calm,Calm,-,N/A,,Overcast,0,2012-12-08 18:53:00
11:53 AM,43.0,39.0,86,30.30,10.0,Calm,Calm,-,N/A,,Overcast,0,2012-12-08 19:53:00
12:53 PM,45.0,39.9,82,30.29,10.0,Calm,Calm,-,0.00,,Mostly Cloudy,0,2012-12-08 20:53:00
1:53 PM,45.0,39.0,80,30.28,10.0,Variable,3.5,-,N/A,,Overcast,0,2012-12-08 21:53:00
2:53 PM,46.0,39.0,76,30.27,10.0,SSW,3.5,-,N/A,,Overcast,210,2012-12-08 22:53:00
3:53 PM,44.1,41.0,89,30.29,6.0,NNW,5.8,-,0.01,Rain,Light Rain,330,2012-12-08 23:53:00
3:58 PM,44.6,41.0,87,30.29,7.0,NNW,5.8,-,0.01,Rain,Light Rain,340,2012-12-08 23:58:00
4:48 PM,42.8,39.2,87,30.29,10.0,Calm,Calm,-,0.03,Rain,Light Rain,0,2012-12-09 00:48:00
4:53 PM,42.1,39.9,92,30.30,10.0,ENE,3.5,-,0.03,Rain,Light Rain,70,2012-12-09 00:53:00
5:53 PM,42.1,39.0,89,30.31,10.0,NE,3.5,-,0.00,,Overcast,50,2012-12-09 01:53:00
6:53 PM,41.0,39.0,93,30.33,7.0,Calm,Calm,-,0.01,Rain,Light Rain,0,2012-12-09 02:53:00
7:51 PM,41.0,39.2,93,30.33,10.0,Calm,Calm,-,0.00,,Overcast,0,2012-12-09 03:51:00
7:53 PM,41.0,39.0,93,30.34,10.0,Calm,Calm,-,0.00,,Overcast,0,2012-12-09 03:53:00
8:53 PM,41.0,37.9,89,30.35,10.0,Calm,Calm,-,0.00,Rain,Light Rain,0,2012-12-09 04:53:00
9:06 PM,41.0,37.4,87,30.35,10.0,Calm,Calm,-,0.00,Rain,Light Rain,0,2012-12-09 05:06:00
9:53 PM,41.0,37.9,89,30.36,10.0,Calm,Calm,-,0.01,Rain,Light Rain,0,2012-12-09 05:53:00
10:53 PM,39.9,39.0,97,30.37,10.0,Calm,Calm,-,0.02,Rain,Light Rain,0,2012-12-09 06:53:00
11:53 PM,39.9,39.0,97,30.38,6.0,South,3.5,-,0.00,Rain,Light Rain,170,2012-12-09 07:53:00